[[{"header":{"parameterUnit":"m.s-1","parameterCategory":1,"la1":30.2991,"la2":30.254,"lo1":-89.0895,"lo2":-89.0444,"dy":0.0017,"dx":0.0017,"nx":28,"ny":28,"refTime":"2025-03-15T21:00:00:Z","depth":0,"parameterNumber":2,"parameterNumberName":"U-component_of_WINDS"},"data":[0,0,0,0,0,0,0,0,0,0,0,0,0,0,0,0,0,0,0,0,0,0,0,0,0,0,0,0,0,0,0,0,0,0,0,0,0,0,0,0,0,0,0,0,0,0,0,0,0,0,0,0,0,0,0,0,0,0,6.0022,6.0024,0,6.0172,6.0174,6.0176,6.0114,6.011,6.0107,6.0103,6.0268,6.0275,6.0283,0,0,0,0,0,0,0,0,0,0,0,0,0,5.9692,5.9699,6.0022,6.0024,6.0026,6.0172,6.0174,6.0176,6.0115,6.011,6.0106,6.0102,6.0265,6.0274,6.0284,0,0,0,0,0,0,0,0,0,0,0,0,0,5.9839,5.9701,6.0022,6.0012,6.0013,6.0172,6.0174,6.0177,6.0116,6.011,6.0105,6.01,6.0262,6.0274,6.0285,6.0465,0,0,6.032,6.0326,0,0,0,0,0,0,0,0,5.9831,5.9851,6.0012,6.0013,6.0014,6.0119,6.0118,6.0274,6.0117,6.0077,6.0103,6.0097,6.0223,6.0238,6.0278,6.0473,6.048,6.0321,6.0329,6.0334,6.0337,0,0,0,0,0,0,0,5.982,5.9844,6.0082,6.0014,6.0016,6.0004,6.0019,6.0147,6.0179,6.008,6.0076,6.0094,6.0223,6.0267,6.0282,6.0482,6.0321,6.0331,6.0339,6.0343,6.0834,6.084,0,0,0,0,0,0,5.9809,5.9836,6.0077,6.0086,5.9907,6.0015,6.0031,6.0091,6.0177,6.0185,6.0098,6.0091,6.025,6.0268,6.0287,6.0504,6.0333,6.0344,6.0351,6.0828,6.0835,6.0842,0,0,0,0,0,0,5.9802,5.9831,6.0071,5.996,5.999,6.0026,6.0094,6.0097,6.014,6.0191,6.0197,6.0137,6.0246,6.0271,6.0421,6.0509,6.035,6.036,6.0821,6.083,6.0839,6.0939,0,0,0,0,0,0,5.9793,5.9829,5.9894,5.9962,5.9996,6.0199,6.0099,6.0104,6.0159,6.0151,6.0229,6.0237,6.0244,6.0404,6.0432,6.0522,6.0369,6.0813,6.0825,6.0836,6.0928,6.095,6.0969,0,0,0,0,0,5.9781,5.9919,5.9898,5.9928,6.0078,6.0204,6.0224,6.0226,6.0167,6.0235,6.0268,6.0234,6.0495,6.042,6.0451,6.0546,6.0808,6.0822,6.0835,6.0918,6.0946,6.0969,0,0,0,0,0,0,5.9864,5.9927,5.9905,6.0068,6.0131,6.0193,6.0279,6.0255,6.0338,6.0327,6.033,6.0348,6.0503,6.054,6.0455,6.0726,6.0643,6.0663,6.0695,6.0722,6.0742,6.073,6.0379,0,0,0,0,0,5.99,5.9993,6.0045,6.0185,6.0217,6.0243,6.0298,6.0294,6.0361,6.0388,6.0431,6.05,6.0598,6.0662,6.0754,6.0933,6.0951,6.1014,6.1035,6.1052,6.107,6.1169,6.1198,6.0887,6.0887,6.0886,0,0,5.9978,6.0024,6.0083,6.0202,6.025,6.035,6.0266,6.0375,6.045,6.0406,6.0548,6.0584,6.0661,6.0827,6.0902,6.0862,6.1159,6.1069,6.1082,6.1091,6.1186,6.1215,6.1241,6.0896,6.0894,6.0893,0,0,6.017,6.0214,6.0334,6.0384,6.0457,6.0474,6.0503,6.057,6.059,6.0733,6.0703,6.0795,6.0962,6.1018,6.1069,6.1285,6.1258,6.1316,6.1424,6.152,6.1545,6.1567,6.1644,6.1672,6.1333,6.1334,6.1334,0,6.0258,6.0403,6.04,6.0511,6.0566,6.0528,6.0652,6.0702,6.0803,6.0843,6.0796,6.1006,6.1056,6.1234,6.1287,6.1329,6.1365,6.1306,6.1541,6.1563,6.1583,6.1657,6.1687,6.134,6.1339,6.1339,6.1338,0,6.0508,6.061,6.07,6.0795,6.0859,6.0977,6.0995,6.1062,6.1054,6.1077,6.1225,6.1283,6.1387,6.1429,6.1424,6.1609,6.1581,6.1538,6.1455,6.1619,6.1689,6.1717,6.1349,6.1347,6.1345,6.1343,0,0,6.0755,6.0847,6.088,6.0923,6.1002,6.1083,6.12,6.1299,6.1356,6.1429,6.1529,6.1672,6.1632,6.169,6.1691,6.1776,6.1944,6.1723,6.1725,6.1762,6.2153,6.2185,6.2217,6.1927,6.1933,6.1937,6.2147,0,6.0953,6.1154,6.1156,6.1343,6.1438,6.1405,6.1508,6.157,6.1595,6.1683,6.1712,6.1814,6.1753,6.1788,6.1871,6.1906,6.2023,6.1891,6.2023,6.2028,6.2003,6.2254,6.2287,6.2482,6.2174,6.2179,6.2182,0,6.121,6.1287,6.1482,6.1548,6.1588,6.168,6.1771,6.1855,6.1926,6.1938,6.2003,6.1992,6.2116,6.2029,6.2201,6.2112,6.2167,6.2193,6.2201,6.2212,6.2114,6.2273,6.2544,6.2574,6.2225,6.2222,6.2219,0,6.137,6.1524,6.166,6.1699,6.1779,6.1844,6.1882,6.1947,6.2006,6.2088,6.2127,6.2224,6.2277,6.2353,6.237,6.2305,6.2543,6.2457,6.2559,6.2559,6.261,6.2606,6.2894,6.2646,6.2646,6.2645,6.2645,0,6.1591,6.1712,6.1733,6.1817,6.1953,6.1957,6.2092,6.2125,6.2184,6.2276,6.2255,6.2344,6.236,6.2453,6.2468,6.2609,6.2633,6.2649,6.2651,6.2651,6.2649,6.2686,6.2673,6.2653,6.2651,6.265,6.2649,0,6.1792,6.1811,6.1958,6.2022,6.2041,6.2138,6.2195,6.2277,6.23,6.2418,6.2447,6.2485,6.2593,6.2617,6.2748,6.2757,6.2925,6.2915,6.29,6.2899,6.2999,6.2989,6.332,6.3364,6.3088,6.3091,6.3093,0,6.1931,6.2022,6.2096,6.2154,6.2194,6.229,6.2349,6.2358,6.2422,6.2511,6.2583,6.2689,6.2773,6.295,6.2992,6.3092,6.3083,6.3193,6.3098,6.3095,6.3085,6.3079,6.3089,6.321,6.3213,6.3216,6.3218,0,6.2175,6.218,6.2265,6.2355,6.2427,6.2499,6.2567,6.2618,6.2636,6.2711,6.2819,6.2885,6.3017,6.3123,6.3223,6.3266,6.3247,6.3247,6.3276,6.3275,6.3263,6.3271,6.2948,6.3239,6.3237,6.3235,6.3234,6.3233,6.2349,6.2429,6.2493,6.259,6.2642,6.2707,6.2787,6.282,6.291,6.3015,6.3016,6.3136,6.3208,6.334,6.3389,6.3485,6.3452,6.3493,6.3504,6.3514,6.3523,6.3248,6.3504,6.3503,6.3503,6.3502,6.3502,0,6.2592,6.2631,6.272,6.2815,6.2893,6.2864,6.294,6.3007,6.3111,6.3177,6.3261,6.3387,6.3491,6.3541,6.3644,6.3712,6.3706,6.3739,6.3734,6.3744,6.3547,6.3511,6.3742,6.3742,6.3742,6.3742,6.3742,6.3742,6.2727,6.2862,6.2875,6.3037,6.3076,6.319,6.3236,6.3297,6.335,6.3491,6.3575,6.3606,6.3668,6.3775,6.387,6.3882,6.3922,6.3959,6.3968,6.3782,6.3758,6.3734,6.3701,6.3968,6.3968,6.4157,6.4158,6.416]},{"header":{"parameterUnit":"m.s-1","parameterCategory":1,"la1":30.2991,"la2":30.254,"lo1":-89.0895,"lo2":-89.0444,"dy":0.0017,"dx":0.0017,"nx":28,"ny":28,"refTime":"2025-03-15T21:00:00:Z","depth":0,"parameterNumber":3,"parameterNumberName":"V-component_of_WINDS"},"data":[0,0,0,0,0,0,0,0,0,0,0,0,0,0,0,0,0,0,0,0,0,0,0,0,0,0,0,0,0,0,0,0,0,0,0,0,0,0,0,0,0,0,0,0,0,0,0,0,0,0,0,0,0,0,0,0,0,0,2.9255,2.9257,0,2.9383,2.9384,2.9385,2.9392,2.9391,2.9389,2.9388,2.9523,2.9528,2.9533,0,0,0,0,0,0,0,0,0,0,0,0,0,2.9022,2.9026,2.9255,2.9257,2.9258,2.9382,2.9384,2.9386,2.9393,2.9391,2.9389,2.9387,2.9521,2.9527,2.9533,0,0,0,0,0,0,0,0,0,0,0,0,0,2.9134,2.9028,2.9255,2.9277,2.928,2.9382,2.9384,2.9386,2.9393,2.9391,2.9388,2.9386,2.952,2.9527,2.9534,2.9625,0,0,2.9557,2.956,0,0,0,0,0,0,0,0,2.9127,2.9142,2.9272,2.9275,2.9279,2.9369,2.9351,2.9466,2.9394,2.935,2.9388,2.9385,2.9474,2.9485,2.9514,2.9631,2.9637,2.9558,2.9562,2.9565,2.9567,0,0,0,0,0,0,0,2.912,2.9137,2.9306,2.9274,2.9278,2.9281,2.9295,2.9373,2.9423,2.9354,2.9355,2.9369,2.9476,2.9507,2.9517,2.9639,2.9557,2.9564,2.9569,2.9572,2.9837,2.984,0,0,0,0,0,0,2.9107,2.913,2.9302,2.9309,2.9196,2.9287,2.9302,2.9343,2.9422,2.9432,2.9371,2.9369,2.9495,2.9508,2.9522,2.9634,2.9565,2.9572,2.9577,2.9835,2.9838,2.9841,0,0,0,0,0,0,2.9102,2.9122,2.9297,2.922,2.9243,2.9294,2.9339,2.9346,2.9377,2.9435,2.9445,2.9393,2.9494,2.9511,2.9599,2.9639,2.9576,2.9582,2.9832,2.9836,2.9839,2.9858,0,0,0,0,0,0,2.9095,2.912,2.9154,2.9221,2.9247,2.937,2.9341,2.935,2.939,2.9388,2.9459,2.9468,2.9493,2.9588,2.9606,2.9648,2.9588,2.9829,2.9834,2.9838,2.9854,2.9862,2.9869,0,0,0,0,0,2.9087,2.9156,2.9156,2.9177,2.929,2.9372,2.9387,2.9413,2.9393,2.9428,2.9465,2.9466,2.9631,2.9597,2.9618,2.9662,2.9826,2.9832,2.9838,2.9851,2.9861,2.9869,0,0,0,0,0,0,2.9094,2.9165,2.9166,2.9258,2.9309,2.9373,2.9419,2.9423,2.9482,2.9478,2.951,2.9526,2.9612,2.9646,2.9606,2.9754,2.9727,2.9737,2.9729,2.9739,2.9746,2.9737,2.9595,0,0,0,0,0,2.9106,2.9166,2.9225,2.93,2.9326,2.9368,2.9405,2.942,2.9475,2.9497,2.954,2.9595,2.9659,2.9701,2.9763,2.9859,2.9875,2.9899,2.9907,2.9912,2.9922,2.9975,2.9987,2.986,2.986,2.986,0,0,2.9133,2.9178,2.9214,2.9303,2.9344,2.9407,2.9386,2.9453,2.95,2.9508,2.9593,2.9626,2.9689,2.9781,2.9824,2.9812,2.996,2.992,2.9924,2.993,2.9983,2.9995,3.0005,2.9864,2.9863,2.9862,0,0,2.9212,2.9252,2.9319,2.9361,2.9423,2.945,2.9467,2.953,2.9553,2.9638,2.9645,2.9702,2.9812,2.9856,2.9893,2.9988,2.9992,3.0008,3.0047,3.0099,3.0109,3.0118,3.0153,3.0165,3.0016,3.0016,3.0017,0,2.9237,2.933,2.9354,2.9421,2.946,2.9468,2.9537,2.9577,2.9657,2.9684,2.9669,2.9806,2.9849,2.9952,2.9975,3.0004,3.0025,3.0001,3.0105,3.0115,3.0124,3.0158,3.017,3.0018,3.0018,3.0018,3.0018,0,2.9358,2.9422,2.947,2.9545,2.9589,2.9657,2.9693,2.9735,2.9746,2.9776,2.9863,2.9914,2.9987,3.0012,3.0025,3.0117,3.0108,3.0099,3.0072,3.0137,3.0169,3.0182,3.002,3.002,3.0019,3.0019,0,0,2.9447,2.9534,2.9551,2.9585,2.9654,2.9705,2.9773,2.9843,2.9879,2.9934,2.9993,3.0085,3.0076,3.0118,3.0136,3.0181,3.0255,3.0167,3.0169,3.0182,3.0361,3.0368,3.0382,3.0256,3.0259,3.0261,3.0356,0,2.9535,2.9655,2.9679,2.9784,2.9844,2.9852,2.9912,2.9961,2.999,3.0047,3.0079,3.0144,3.0128,3.0153,3.0199,3.0236,3.0291,3.0229,3.0313,3.0316,3.0298,3.0399,3.0407,3.0494,3.0368,3.0371,3.0372,0,2.9654,2.971,2.982,2.9881,2.9907,2.996,3.0026,3.0079,3.0136,3.0154,3.02,3.0212,3.0285,3.0253,3.0354,3.0312,3.0347,3.0371,3.0375,3.0385,3.0349,3.0413,3.0522,3.0536,3.0392,3.039,3.0389,0,2.9708,2.9812,2.9891,2.992,2.9993,3.003,3.0062,3.0116,3.0156,3.0214,3.0241,3.0307,3.0343,3.0395,3.0425,3.0399,3.0524,3.0495,3.0543,3.0542,3.057,3.0568,3.0688,3.0591,3.0591,3.059,3.059,0,2.9805,2.9872,2.9917,2.9966,3.0042,3.0069,3.0144,3.0176,3.0224,3.028,3.0292,3.0345,3.0381,3.0439,3.0463,3.0544,3.056,3.0578,3.0584,3.0578,3.0576,3.0603,3.0598,3.0594,3.0593,3.0592,3.0592,0,2.9879,2.9912,2.9999,3.006,3.0077,3.013,3.0183,3.0232,3.0261,3.0332,3.035,3.0396,3.0465,3.05,3.0587,3.0603,3.0695,3.0696,3.0675,3.0678,3.0724,3.0719,3.0866,3.0887,3.0775,3.0776,3.0777,0,2.9939,2.9991,3.0057,3.0095,3.0128,3.0189,3.0229,3.0258,3.03,3.0368,3.0409,3.0478,3.0535,3.0646,3.0688,3.0755,3.0759,3.0805,3.0769,3.0761,3.0761,3.0758,3.0763,3.0812,3.0813,3.0814,3.0815,0,3.0042,3.0055,3.0113,3.0176,3.0224,3.0276,3.0327,3.0357,3.0394,3.0441,3.0511,3.0555,3.0643,3.0713,3.0782,3.0817,3.0823,3.0826,3.0841,3.0836,3.0822,3.0831,3.0694,3.0823,3.0822,3.0821,3.0821,3.0821,3.0112,3.0159,3.0212,3.0276,3.0317,3.0364,3.0413,3.0447,3.0506,3.0578,3.0592,3.0666,3.0722,3.0816,3.0852,3.0912,3.0902,3.0924,3.0929,3.0934,3.0937,3.0811,3.0925,3.0925,3.0925,3.0925,3.0924,0,3.0217,3.0251,3.0309,3.038,3.043,3.0429,3.0485,3.0528,3.0593,3.0644,3.0699,3.078,3.0847,3.0894,3.0963,3.1002,3.1006,3.1019,3.1017,3.1025,3.0942,3.0922,3.1014,3.1014,3.1014,3.1014,3.1014,3.1014,3.0277,3.0356,3.0375,3.0475,3.051,3.0582,3.0614,3.0658,3.0699,3.0788,3.0843,3.0873,3.0922,3.0994,3.1056,3.1068,3.1094,3.1107,3.1119,3.104,3.1031,3.1022,3.1004,3.1112,3.1112,3.1198,3.1199,3.1199]}]]